Find OneWeb SL0209

NORAD ID: 48215 Int'l Des: 2021-031 Owner: ONEWEBN Country: UK Constellation: oneweb operational
別名: ONEWEB-0209 spacetrack, celestrak
LEOCIRCULARPOLARONEWEB_TYPE

現在のビュー

3D地球を読み込み中...

About OneWeb SL0209

OneWeb SL0209 (NORAD 48215) is a oneweb constellation satellite launched Apr 25, 2021 by ONEWEBN of UK. It operates in LEO, CIRCULAR, POLAR, ONEWEB_TYPE orbit with a mass of 148.00 kg.

次回通過

Passes for default location (London). Set your location on the main map for personalized predictions.

高度履歴

Loading altitude history...

軌道要素

1 48215U 21031F 26265.82515291 -.00000069 00000-0 -22066-3 0 9997
2 48215 87.8896 270.2366 0001704 95.1278 265.0046 13.14502232261205
Epoch: Sep 22, 2026 • Age: 8 hours

現在のステータス

高度 1219.7 km
遠地点 / 近地点 N/A
速度 7.24 km/s
衛星直下点 -34.96°S, 26.61°E
打ち上げ日 Apr 25, 2021
運用期間 5.4 years
タイプ internet

技術仕様

分類 Payload
質量 148.00 kg
乾燥質量 140.00 kg
長さ 1.30 m
直径 1.00 m
スパン 5.00 m
形状 ? Trapezoid+2 pan
製造者 ONEWUS
バスタイプ ARROW
フェーズステータス In Orbit
所有者/国 ONEWEBN/UK

Most Searched